Weather in Cherusty

Russia / Moscow Oblast     55°32′51″N   40°00′32″E
temp.,
°C
wind,
m/s
gust,
m/s
humid.,
%
clouds,
%
prec.,
mm/h
press.,
hPa
HPBL,
m
25 february, thu
thu2500:00−15s4994100 0.4 1029428
03:00−14ssw4995100 0.9 1026414
06:00−12s41095100 2.1 1021392
09:00−9ssw51195100 4.3 1016455
12:00−1ssw3797100 2.3 1013316
15:00+2wnw412100100 2.8 1012427
18:00+2wnw41399100 0.0 1012461
21:00+1wnw31098100 0.0 1014422
26 february, fri
fri2600:00+1w3899100 0.0 1013262
03:00+1wsw3699100 0.1 1012203
06:00+1wsw3899100 0.5 1010269
09:00+2wsw41299100 1.6 1008379
12:00+2wsw412100100 0.5 1005422
15:00+3wsw515100100 1.0 1002594
18:00+2w51593100 0.3 1001802
21:00+2w61488100 0.4 10021058
27 february, sat
sat2700:00+1wnw6139599 0.1 1000961
03:00+1w6149499 0.1 10001040
06:00+1wnw6138894 0.1 10001074
09:00+1wnw6129197 0.1 1001911
12:00+1nw51099100 0.2 1002758
15:000nnw4996100 0.4 1004753
18:000nw3898100 0.6 1006415
21:00−1nw389898 1.0 1007316
28 february, sun
sun2800:00−2nw389787 0.2 1008333
03:00−3nnw379788 0.3 1010285
06:00−4nnw259884 0.3 1012188
09:00−4n269586 0.5 1013402
12:00−2n368998 0.1 1015738
15:00−2nnw478999 0.4 1016778
18:00−5n3993100 0.1 1018496
21:00−6n399599 0.3 1021571
1 march, mon
mon100:00−6n2597100 0.1 1023226
03:00−7nnw2596100 0.3 1024220
06:00−8nw239597 0.0 102668
09:00−6nw259396 0.1 1027324
12:00−3wnw248548 0.0 1028582
15:00−2w468569 0.0 1027637
18:00−3wsw31091100 0.0 1027402
21:00−3w4119492 0.0 1026424